Location: Unspecified
(28.0250°N, 120.8490°E)
Time: 00:26:35
(UTC+00:00)

Daily predictions for brighter satellites

Satellite Brightness Start Highest point End
(mag) Time Altitude Azimuth Time Altitude Azimuth Time Altitude Azimuth
Spot 4 Rocket 4.4 11:18:31 10° S 11:23:35 70° WSW 11:28:40 10° NNW
ERS-1 Rocket 4.4 11:20:10 10° ESE 11:23:44 20° ENE 11:27:18 10° NNE
Terra 3.5 11:23:15 10° ESE 11:26:16 17° ENE 11:29:17 10° NNE
Cosmos 1340 Rocket 3.0 11:25:12 10° N 11:28:41 41° E 11:32:08 10° SSE
USA 238 DEB 3.5 11:23:58 10° SSW 11:29:50 88° WNW 11:36:09 10° NNE
USA 238 3.4 11:24:12 10° SSW 11:30:04 89° WNW 11:36:22 10° NNE
SAR-Lupe-4 4.2 11:30:58 10° S 11:34:26 57° W 11:37:56 10° NNW
Cosmos 1758 3.1 11:41:04 10° N 11:44:45 66° E 11:48:25 10° SSE
Mugunghwa Rocket 4.4 11:40:09 10° W 11:48:22 78° S 11:55:42 10° E
CZ-4B R/B 4.1 11:48:58 14° SE 11:51:43 41° ENE 11:55:02 10° N
CZ-3 Stage 3 4.0 11:40:42 10° WNW 11:51:43 28° SW 11:56:07 10° S
NOSS 2-1 (E) 4.1 11:49:20 10° SW 11:54:29 63° WNW 11:58:15 10° NNE
